Indianapolis, IN

7:11 AM EST on February 11, 2016 (GMT -0500)
Indianapolis International

Weather History for KIND - March, 2014

Change the Weather History Date:

Monday, March 3, 2014

  Actual Average Record
Temperature  
Mean Temperature 13 °F 37 °F  
Max Temperature 18 °F 46 °F 77 °F (1992)
Min Temperature 7 °F 29 °F -5 °F (1943)
Degree Days  
Heating Degree Days 52 28  
Month to date heating degree days 125 84  
Since 1 July heating degree days 4922 4227  
Cooling Degree Days 0 0  
Month to date cooling degree days 0 0  
Year to date cooling degree days 0 0  
Moisture  
Dew Point 0 °F    
Average Humidity 60    
Maximum Humidity 76    
Minimum Humidity 43    
Precipitation  
Precipitation 0.00 in 0.09 in 2.01 in (1953)
Month to date precipitation 0.29 0.28  
Year to date precipitation 5.08 5.26  
Snow  
Snow 0.00 in 0.10 in 3.40 in (1912)
Month to date snowfall 2.4 0.4  
Since 1 July snowfall 54.7 23.5  
Snow Depth 2.00 in    
Sea Level Pressure  
Sea Level Pressure 30.40 in    
Wind  
Wind Speed 11 mph (NNE)    
Max Wind Speed 22 mph    
Max Gust Speed 27 mph    
Visibility 10 miles    
Events      
T = Trace of Precipitation, MM = Missing Value Source: NWS Daily Summary

Daily Weather History Graph

Daily Weather History Graph

Search for Another Location

Airport or City:

Trip Planner

Search our weather history database for the weather conditions in past years. The results will help you decide how hot, cold, wet, or windy it might be!

Date:

Astronomy

Mar. 03, 2014 Rise Set
Actual Time 7:15 AM EST 6:39 PM EST
Civil Twilight 6:48 AM EST 7:06 PM EST
Nautical Twilight 6:17 AM EST 7:37 PM EST
Astronomical Twilight 5:45 AM EST 8:09 PM EST
Moon 8:23 AM EST (3/3) 9:41 PM EST (3/3)
Length of Visible Light 12h 18m
Length of Day
11h 24m
Waxing Crescent, 8% of the Moon is Illuminated
Mar 3
Waxing Crescent
Mar 8
First Quarter
Mar 16
Full
Mar 23
Last Quarter
Mar 30
New

Hourly Weather History & Observations

Time (EST) Temp. Windchill Dew Point Humidity Pressure Visibility Wind Dir Wind Speed Gust Speed Precip Events Conditions
12:02 AM 12.9 °F -4.9 °F 5.0 °F 71% 30.27 in 10.0 mi North 19.6 mph - N/A   Overcast
12:54 AM 12.0 °F -6.0 °F 1.9 °F 64% 30.31 in 10.0 mi North 19.6 mph 26.5 mph N/A   Overcast
1:54 AM 10.9 °F -4.7 °F 1.9 °F 67% 30.32 in 10.0 mi North 13.8 mph - N/A   Overcast
2:24 AM 10.9 °F -5.9 °F 3.0 °F 70% 30.27 in 10.0 mi NNE 16.1 mph 21.9 mph N/A   Overcast
2:54 AM 10.9 °F -6.5 °F 3.0 °F 70% 30.32 in 10.0 mi North 17.3 mph - N/A   Overcast
3:54 AM 10.9 °F -5.9 °F 3.0 °F 70% 30.31 in 10.0 mi North 16.1 mph - N/A   Overcast
4:54 AM 10.0 °F -3.7 °F 3.0 °F 73% 30.32 in 10.0 mi NNE 10.4 mph - N/A   Overcast
5:40 AM 9.0 °F -7.9 °F 1.9 °F 73% 30.30 in 10.0 mi NNE 15.0 mph 21.9 mph N/A   Scattered Clouds
5:54 AM 9.0 °F -6.6 °F 1.9 °F 73% 30.36 in 10.0 mi NNE 12.7 mph - N/A   Overcast
6:54 AM 8.1 °F -10.2 °F 1.0 °F 73% 30.37 in 10.0 mi NNE 17.3 mph - N/A   Mostly Cloudy
7:54 AM 7.0 °F -9.1 °F -0.9 °F 70% 30.39 in 10.0 mi NE 12.7 mph - N/A   Overcast
8:54 AM 7.0 °F -9.8 °F -0.9 °F 70% 30.43 in 10.0 mi NNE 13.8 mph - N/A   Mostly Cloudy
9:54 AM 8.1 °F -7.7 °F -0.9 °F 67% 30.45 in 10.0 mi NNE 12.7 mph - N/A   Mostly Cloudy
10:54 AM 10.9 °F -0.8 °F -0.9 °F 59% 30.46 in 10.0 mi NE 8.1 mph - N/A   Scattered Clouds
11:54 AM 12.9 °F 0.7 °F -0.9 °F 54% 30.46 in 10.0 mi ENE 9.2 mph - N/A   Partly Cloudy
12:54 PM 14.0 °F 2.9 °F -0.9 °F 52% 30.46 in 10.0 mi North 8.1 mph - N/A   Partly Cloudy
1:54 PM 16.0 °F 2.3 °F -2.0 °F 45% 30.45 in 10.0 mi NNE 12.7 mph - N/A   Partly Cloudy
2:54 PM 17.1 °F 5.0 °F -2.9 °F 41% 30.45 in 10.0 mi North 10.4 mph - N/A   Clear
3:54 PM 17.1 °F 5.0 °F -0.9 °F 45% 30.43 in 10.0 mi NE 10.4 mph - N/A   Partly Cloudy
4:54 PM 17.1 °F 6.6 °F -0.9 °F 45% 30.45 in 10.0 mi NE 8.1 mph - N/A   Partly Cloudy
5:54 PM 16.0 °F 4.4 °F -0.9 °F 47% 30.47 in 10.0 mi NE 9.2 mph - N/A   Partly Cloudy
6:54 PM 12.9 °F -0.9 °F -0.9 °F 54% 30.45 in 10.0 mi NE 11.5 mph - N/A   Partly Cloudy
7:54 PM 12.0 °F -0.4 °F -2.0 °F 53% 30.45 in 10.0 mi NE 9.2 mph - N/A   Partly Cloudy
8:54 PM 10.9 °F -0.8 °F -0.9 °F 59% 30.44 in 10.0 mi ENE 8.1 mph - N/A   Mostly Cloudy
9:54 PM 10.9 °F 2.9 °F -0.9 °F 59% 30.44 in 10.0 mi ENE 4.6 mph - N/A   Scattered Clouds
10:54 PM 10.0 °F -0.9 °F -2.0 °F 58% 30.43 in 10.0 mi ENE 6.9 mph - N/A   Scattered Clouds
11:54 PM 9.0 °F -3.2 °F -0.9 °F 64% 30.41 in 10.0 mi ESE 8.1 mph - N/A   Mostly Cloudy